Temp
12 15 16 17 19 19 20 20 20 22 23 24 25 25 25 26 26 21 28 31 31 30 27 29 30 31 32 35 35 36 37 36 37 36 35 35 34 34 34 32 32 32 32 31 28
9 12 15 16 18 18 18 19 20 21 23 24 24 25 25 25 21 28 31 29 29 30 30 31 33 33 35 36 36 36 37 37 38 38 37 35 35 34 33 32 32 31 32 29 27
9 9 13 16 17 18 18 18 19 21 22 23 24 24 25 23 27 34 29 30 29 29 32 33 35 35 36 37 37 38 37 38 38 38 38 36 35 35 34 32 33 31 31 29 28
10 12 13 14 16 17 17 18 19 20 21 23 24 24 22 18 31 31 29 29 30 27 31 33 35 34 36 36 38 37 38 38 38 37 37 36 36 35 34 35 35 33 31 30 29
12 14 15 15 16 18 17 17 18 20 22 21 22 23 19 28 32 30 29 29 27 28 31 34 34 35 36 38 38 37 38 39 39 37 38 37 36 35 34 34 35 33 31 30 30
8 11 14 16 17 17 17 17 19 20 21 21 17 20 21 29 31 28 27 27 29 29 32 34 35 37 37 38 38 39 38 38 39 38 37 36 36 35 35 35 33 32 31 31 31
8 9 12 14 16 17 18 19 19 21 21 21 12 15 24 31 30 28 28 30 30 31 34 33 35 36 37 37 39 38 37 36 37 37 36 37 34 34 35 34 33 32 32 31 31
10 11 12 13 14 17 19 20 21 20 19 12 14 17 28 29 28 28 29 30 29 30 32 33 34 35 37 38 38 37 38 37 37 36 36 36 36 35 35 34 33 32 32 31 31
10 12 12 13 15 16 19 20 19 16 13 13 16 21 31 27 29 31 30 32 31 31 31 32 34 35 36 36 37 38 37 37 36 37 35 35 37 36 35 35 34 33 32 32 31
8 11 12 13 15 17 19 18 15 12 13 14 17 23 29 33 32 31 30 32 33 32 32 33 33 35 36 37 36 37 37 38 38 36 36 36 37 35 35 35 35 33 33 32 32
11 11 12 13 15 17 18 18 23 23 20 29 32 31 33 32 30 33 31 32 34 33 33 34 33 34 36 37 38 39 38 38 39 38 36 37 37 37 34 35 35 34 33 33 33
10 11 12 15 15 16 15 23 23 21 25 30 30 30 30 31 30 33 32 33 33 32 34 33 33 36 37 37 37 38 38 38 39 38 37 38 37 37 36 34 35 35 34 33 33
11 10 11 15 16 15 17 21 19 20 25 30 30 30 31 30 30 32 33 33 33 33 34 33 35 36 36 36 36 37 37 38 38 37 37 38 36 37 38 36 35 35 35 35 34
10 10 11 13 16 16 21 19 18 19 27 32 30 31 29 31 30 33 34 33 33 33 34 34 36 35 34 35 37 36 39 38 38 37 36 37 36 38 39 36 35 35 35 35 34
10 12 10 9 12 18 19 18 18 21 28 31 31 31 32 31 33 32 33 34 33 33 34 33 34 34 34 35 37 37 39 38 38 37 37 37 36 38 38 37 37 36 36 36 35
8 10 9 13 12 15 16 17 19 26 27 31 32 31 31 32 33 31 32 34 35 34 34 34 35 35 35 36 37 38 37 37 38 37 36 37 37 37 38 37 39 39 37 36 36
9 10 10 10 19 16 16 22 26 27 30 31 31 32 33 33 33 32 31 31 32 31 31 33 34 35 36 35 36 36 36 34 34 35 35 38 37 37 39 40 40 41 40 37 36
9 11 12 12 13 13 17 24 25 29 30 31 31 32 31 33 33 33 32 32 33 33 34 32 31 34 35 35 36 35 36 36 33 35 35 37 35 37 39 40 41 41 40 39 37
9 13 14 15 12 14 21 24 27 28 30 31 32 31 32 33 32 32 33 33 34 34 32 33 32 35 36 36 37 36 36 38 37 37 37 38 37 38 40 39 40 40 39 39 38
8 13 16 15 13 16 22 23 28 29 30 31 30 32 31 33 31 32 33 34 34 34 35 34 32 35 35 36 37 37 37 35 37 34 34 36 37 37 38 39 40 40 39 39 38
11 16 16 13 14 19 22 24 26 28 28 29 30 30 30 31 31 32 33 34 34 34 34 34 33 34 35 34 35 36 36 36 37 37 35 35 36 39 38 39 39 41 40 40 39
12 16 15 14 19 22 22 25 23 26 28 28 29 30 30 30 30 31 31 33 34 35 33 34 34 32 33 36 36 37 36 36 35 34 36 36 37 41 40 40 40 41 42 42 40
13 15 17 15 18 21 23 23 24 24 26 27 28 28 30 29 29 30 31 33 33 33 33 34 33 32 32 35 35 35 36 37 37 37 36 35 36 40 40 39 40 39 40 40 38
12 16 19 18 19 18 20 19 21 24 24 27 28 29 28 29 30 29 30 32 32 33 26 32 34 32 33 33 35 34 35 36 36 37 35 36 37 38 39 38 39 40 39 39 36
13 15 14 17 19 17 17 18 19 21 23 25 25 26 28 27 28 28 29 31 31 29 30 31 31 33 33 34 35 35 35 35 35 36 36 37 37 38 38 39 39 40 41 39 36
10 12 12 12 13 15 16 17 18 20 21 22 23 26 27 27 28 28 29 29 30 32 31 32 30 31 32 34 34 34 35 35 35 36 36 36 37 39 39 39 39 40 40 39 36
10 10 10 12 13 14 16 17 17 18 19 21 21 21 22 25 26 27 28 28 29 30 30 30 31 30 31 34 33 32 34 35 35 36 36 35 37 38 38 39 39 40 39 39 37
Height
812 809 806 802 800 797 793 790 787 784 780 777 774 770 768 764 762 759 756 754 753 754 757 760 761 760 759 753 752 747 755 764 760 760 763 757 765 764 765 778 780 780 781 790 802
812 808 805 801 798 795 792 788 785 782 779 775 773 769 765 762 759 753 748 745 748 750 755 755 755 757 752 750 748 751 751 753 743 742 753 758 759 766 774 779 782 785 786 795 803
812 808 804 801 798 794 790 786 783 779 776 773 770 767 764 762 757 738 743 739 744 748 751 752 751 752 752 743 744 741 752 740 741 739 738 753 760 759 768 780 775 784 788 796 802
809 806 802 799 796 793 788 784 780 777 773 770 767 765 763 764 761 740 742 743 745 749 751 749 749 753 752 751 736 752 737 737 735 740 742 751 750 761 765 765 765 774 785 793 800
808 804 800 796 793 790 786 781 777 773 770 766 764 762 764 757 744 740 740 741 744 747 747 745 746 746 750 738 737 746 737 733 730 738 739 742 754 758 765 764 765 774 785 791 797
808 803 799 795 790 787 783 777 773 769 765 763 760 761 763 756 736 738 739 740 742 743 742 741 738 735 737 736 740 728 733 733 730 736 740 750 754 757 759 760 767 775 782 788 793
807 802 797 792 788 784 779 773 768 764 760 758 758 760 758 740 736 736 737 738 738 738 736 737 736 736 733 738 727 731 745 741 736 736 746 743 766 765 753 760 768 774 779 784 789
805 800 796 791 785 779 774 768 763 759 756 756 756 761 744 732 733 733 733 734 735 735 736 736 738 735 732 723 732 742 737 750 738 739 741 747 759 753 751 760 767 771 776 781 785
804 799 793 787 782 776 769 763 758 756 755 756 760 757 735 729 729 726 727 727 732 734 735 736 737 736 733 744 745 737 752 745 749 736 746 752 753 744 748 754 762 768 772 777 782
803 797 791 785 778 771 764 759 756 757 759 760 759 756 729 720 722 724 725 726 726 730 735 736 738 740 737 738 757 747 748 735 742 742 742 752 748 748 748 750 755 763 767 772 775
800 795 788 782 776 768 762 761 758 754 753 732 722 719 716 718 721 719 722 723 721 725 736 729 743 743 732 724 722 723 732 737 726 723 741 742 744 740 749 750 752 756 761 765 767
798 793 786 779 773 766 765 761 759 762 744 723 717 717 716 719 723 712 718 721 722 731 723 734 739 723 720 721 726 724 732 733 719 724 735 733 742 735 737 747 745 749 754 758 761
796 792 784 775 769 767 766 763 763 761 746 712 709 710 708 712 715 706 706 710 718 724 722 730 722 715 721 725 731 726 730 728 729 732 730 732 745 736 728 734 739 740 742 747 753
795 790 784 775 771 769 763 764 763 762 744 708 707 701 706 703 709 694 695 703 712 718 715 721 706 718 729 731 722 733 711 717 724 737 757 730 760 730 720 732 735 737 737 739 744
794 788 783 781 777 768 765 764 764 761 753 700 698 693 694 701 693 695 691 697 710 711 711 717 714 722 727 721 713 723 703 718 721 730 736 735 753 730 719 728 725 724 725 728 732
791 785 780 778 775 765 764 763 761 756 746 702 690 696 699 693 691 695 697 692 692 705 704 705 696 704 710 706 708 706 716 716 719 726 750 729 739 735 721 721 710 705 712 718 723
786 780 775 774 765 763 763 759 753 740 700 700 696 689 689 691 691 692 703 707 708 723 721 712 705 698 696 713 706 713 725 753 760 752 751 716 732 727 702 695 697 693 694 707 714
779 771 765 763 759 762 761 754 745 704 701 685 688 686 698 685 687 686 695 703 694 696 702 720 729 701 692 698 708 713 714 732 762 752 742 718 738 719 694 687 683 679 685 692 703
775 766 760 755 755 758 752 739 713 702 692 691 685 695 689 683 690 687 687 687 682 683 704 702 708 683 685 689 690 703 714 696 716 709 725 712 713 698 686 690 683 683 684 685 691
777 766 752 751 751 753 741 721 698 692 685 685 693 678 687 679 689 683 679 669 674 670 670 683 708 682 681 685 681 683 686 722 707 738 744 723 715 715 698 689 678 677 680 678 681
777 761 748 749 750 739 721 707 698 688 690 691 687 684 683 682 682 675 674 666 661 665 669 676 694 690 685 689 689 691 693 693 694 703 726 734 715 678 687 682 679 668 668 668 672
777 756 748 749 741 715 708 697 697 691 683 688 682 678 681 679 681 680 679 669 654 655 674 669 680 701 687 667 666 667 683 685 704 715 698 704 701 657 663 668 666 663 655 653 661
772 756 746 745 732 714 702 701 695 697 685 683 681 677 673 677 687 676 669 660 659 659 664 660 679 699 695 677 668 675 671 672 677 681 690 711 702 657 660 665 661 663 657 656 662
776 747 732 734 725 725 715 713 705 688 687 678 674 667 674 676 669 676 671 661 658 658 669 658 666 680 684 677 663 680 673 666 671 680 688 679 682 669 664 668 661 655 654 656 661
772 747 747 729 718 728 726 719 712 700 687 680 679 671 669 677 673 673 670 662 662 662 663 664 678 663 663 656 654 659 664 669 670 666 675 669 671 664 659 659 655 648 645 652 659
774 759 756 750 742 735 727 717 709 702 698 691 683 671 666 671 668 671 668 666 667 655 659 657 677 665 667 654 654 660 655 655 656 657 656 661 659 640 641 645 647 644 641 647 654
771 770 770 747 738 734 720 714 710 708 704 695 691 691 685 674 668 662 661 662 660 662 663 662 666 673 673 648 651 666 647 644 649 643 646 660 646 640 641 638 637 636 637 640 642
Wind_Speed
22 22 21 20 18 18 20 21 23 22 21 20 20 21 20 21 21 7 10 10 8 11 15 13 12 9 10 8 8 4 6 4 5 4 11 14 10 7 7 12 8 10 7 22 26
23 23 24 21 19 20 20 21 22 23 22 22 21 22 22 19 13 16 14 14 19 18 19 19 13 12 9 8 6 8 7 5 4 1 12 15 11 13 9 13 10 11 8 27 26
23 23 25 25 22 21 22 22 22 22 23 22 22 22 21 13 11 3 2 4 20 21 16 17 12 13 12 9 9 8 11 6 1 2 12 17 12 12 10 12 12 16 16 25 27
25 25 25 25 24 24 25 25 24 24 24 23 23 21 12 4 6 4 5 8 7 16 13 17 14 15 13 13 11 10 10 9 4 7 11 17 15 12 10 4 13 14 19 25 23
26 25 25 25 25 25 27 28 27 25 23 23 22 15 3 8 14 8 9 6 12 19 19 19 19 18 16 12 10 12 11 8 8 8 12 14 14 10 12 9 11 15 20 24 22
26 27 27 28 27 28 28 29 29 28 25 21 16 3 5 15 2 5 7 7 8 21 21 21 15 19 10 11 12 4 8 8 9 11 12 14 10 11 12 13 12 18 22 23 23
27 28 29 28 29 30 29 31 31 30 26 15 8 3 7 18 4 9 8 8 10 19 16 26 20 17 14 10 12 8 11 5 9 13 10 13 11 14 12 13 13 18 19 21 21
29 30 31 31 31 29 30 30 31 23 11 4 6 4 8 4 5 12 13 12 10 15 17 15 26 15 17 6 7 14 14 12 11 15 9 15 12 17 15 16 15 17 18 20 22
29 31 33 33 32 34 32 28 17 5 2 9 3 6 7 4 8 5 11 10 11 12 9 14 17 16 16 14 15 15 14 13 12 14 7 16 7 16 15 16 15 15 18 19 19
31 33 35 35 33 34 30 14 3 3 3 4 6 6 7 5 11 2 6 10 12 15 10 15 12 14 15 16 17 18 17 11 14 15 13 17 10 5 13 17 16 17 17 19 20
31 34 36 37 36 31 16 5 4 6 9 10 7 14 7 6 6 6 8 15 11 17 14 18 19 21 23 21 20 17 15 13 16 14 17 15 13 10 11 14 16 17 18 19 20
31 34 37 37 37 13 10 7 3 5 12 16 23 23 24 13 10 18 17 16 14 17 18 15 22 22 22 21 23 20 18 17 14 8 15 12 14 12 13 16 17 19 19 19 19
32 35 39 36 22 4 11 1 3 9 8 10 9 10 8 18 12 14 24 21 20 21 21 19 19 20 19 22 23 22 21 18 16 11 15 10 14 14 16 15 16 17 20 21 21
32 35 39 42 3 15 3 5 7 7 6 6 7 7 9 6 8 14 29 21 17 23 21 20 19 23 17 23 22 23 22 19 16 12 13 16 12 14 15 16 17 20 21 21 22
34 33 37 25 16 6 2 4 10 4 6 8 9 8 8 9 3 7 20 24 21 18 21 20 23 21 23 23 24 24 21 20 20 15 18 15 10 13 5 14 19 23 24 24 24
38 37 38 11 10 15 12 8 3 7 9 7 9 12 11 13 5 5 14 19 16 20 17 23 16 20 21 21 22 19 16 12 17 15 18 24 15 15 13 15 16 16 23 25 24
41 41 33 14 5 2 4 5 6 10 4 10 10 13 11 7 10 11 18 21 18 20 21 20 22 16 19 21 23 23 17 11 15 15 15 18 20 16 12 12 16 16 18 23 24
45 37 15 14 9 15 7 7 14 5 18 4 5 11 13 9 9 14 16 19 25 22 15 18 20 27 17 28 25 26 25 16 23 15 14 21 16 18 19 18 21 14 13 20 24
43 19 14 7 13 11 8 15 10 16 10 14 14 15 16 14 7 10 19 20 23 25 23 20 25 24 25 18 27 28 25 26 25 20 16 17 14 22 17 15 16 14 13 17 23
25 20 13 7 10 12 9 24 20 15 9 13 17 12 13 17 14 13 16 16 20 24 22 15 13 24 23 20 25 29 21 24 20 26 23 20 18 11 18 19 17 14 16 18 20
14 6 4 3 13 8 14 22 21 24 16 18 18 20 13 15 14 12 8 11 16 19 22 22 13 15 23 27 28 20 23 21 23 21 19 18 19 16 16 15 15 12 14 15 18
8 5 4 7 8 10 16 19 12 17 22 24 17 20 19 16 16 14 12 9 8 16 24 22 15 15 19 27 29 26 25 26 17 27 20 22 18 12 13 17 21 21 15 10 13
5 8 7 9 8 13 15 15 15 21 21 21 27 22 19 18 20 17 16 12 9 10 14 20 18 14 19 19 18 27 31 27 26 20 26 20 18 16 9 12 14 12 14 8 8
5 4 6 7 11 12 16 13 19 16 19 24 21 19 23 23 19 10 12 13 10 16 8 6 18 22 16 22 21 25 26 30 30 23 23 26 21 21 18 16 17 15 16 10 9
5 4 2 6 6 5 11 14 14 15 14 14 21 22 19 20 21 20 17 10 10 8 6 6 15 16 21 21 19 24 28 28 31 32 29 23 29 24 22 20 18 19 17 12 12
4 5 5 10 12 14 12 13 14 14 9 16 16 19 21 20 19 17 21 18 17 14 15 13 11 10 17 22 24 22 26 27 26 27 31 33 31 24 26 23 24 22 21 15 16
5 9 5 9 8 7 11 13 9 6 11 16 15 11 9 8 9 10 10 13 14 12 13 14 13 10 16 15 20 24 27 27 29 27 24 25 28 30 27 22 25 23 20 18 18
Wind_Direction
356 354 355 355 352 349 345 343 340 335 330 328 327 326 327 325 323 299 260 253 233 216 163 172 186 191 196 222 236 259 249 143 97 247 127 152 155 156 110 139 173 162 151 144 151
355 352 351 350 350 346 344 340 337 334 329 326 324 322 323 327 315 276 276 252 212 196 176 182 187 187 213 222 206 234 272 85 31 171 148 161 167 158 170 160 173 158 128 147 158
353 350 350 347 343 341 340 338 334 330 328 324 322 319 322 335 281 235 49 100 194 192 198 200 201 204 235 229 206 209 262 88 174 195 161 166 176 168 171 180 179 173 155 158 165
350 349 349 346 342 340 339 334 331 326 323 320 318 317 324 312 293 108 176 89 180 192 210 206 207 214 229 221 219 253 238 277 285 166 185 170 162 178 175 118 170 170 165 165 173
348 347 346 343 340 339 336 331 327 321 316 316 312 315 339 250 260 260 250 265 192 190 211 206 206 212 231 229 228 240 262 265 258 203 188 176 174 165 180 135 160 163 168 174 178
346 346 347 343 337 336 332 327 322 319 311 308 302 295 256 268 277 176 161 156 196 199 208 213 218 216 257 241 228 276 251 266 251 189 179 186 172 174 178 165 168 169 176 180 184
345 345 346 340 336 335 331 323 320 314 308 297 267 173 248 255 259 203 200 236 222 205 211 215 220 204 222 230 227 227 238 218 225 172 173 198 178 209 144 165 167 180 183 183 189
347 348 345 340 338 335 329 322 315 315 305 257 190 215 259 239 222 236 233 229 214 210 220 226 213 250 242 234 200 218 229 220 162 174 164 196 198 198 160 176 178 182 183 187 192
347 346 344 341 340 334 327 323 319 341 117 135 177 235 267 194 224 181 193 198 185 178 199 183 196 225 205 216 213 208 227 217 156 192 160 201 242 160 178 190 183 186 186 189 193
343 347 343 341 339 333 326 327 311 96 120 227 258 244 245 220 156 234 185 177 167 173 169 183 199 202 220 209 213 209 224 192 198 189 194 200 223 139 185 202 197 189 192 194 196
344 345 343 340 339 331 332 306 226 192 206 256 296 263 259 209 185 214 178 183 179 179 190 192 201 208 207 215 229 225 211 216 215 157 203 215 221 191 191 209 210 198 199 200 204
345 345 342 338 336 335 352 306 29 352 292 261 252 261 260 257 263 239 193 196 196 199 203 182 214 211 223 216 230 239 225 220 194 169 218 218 233 228 196 213 211 206 205 208 206
343 346 343 338 334 25 322 255 20 326 265 281 235 245 237 196 224 238 193 209 201 207 199 209 204 218 215 222 223 225 230 219 218 183 229 249 234 233 213 207 213 215 211 209 208
341 343 342 339 332 332 309 196 326 323 271 213 201 185 169 190 227 218 200 200 213 213 202 220 213 205 206 225 218 226 223 234 223 205 226 205 245 228 217 206 213 212 212 213 209
340 336 338 342 298 291 328 319 308 237 280 124 151 142 159 214 18 163 196 202 208 214 204 206 208 194 216 215 218 233 228 220 246 219 241 181 241 256 184 228 217 218 212 211 209
335 332 331 335 269 264 281 295 225 230 238 183 168 184 186 203 199 128 186 214 226 216 219 229 200 215 219 216 224 227 250 235 235 235 232 234 212 233 217 231 243 223 214 211 208
331 327 314 263 249 231 300 236 223 236 108 187 193 195 203 189 191 184 185 196 200 202 206 215 206 214 214 211 211 217 213 209 218 226 239 211 234 230 249 221 241 261 204 210 207
328 327 303 245 240 244 245 219 232 238 218 122 205 189 226 200 212 198 193 206 215 211 211 209 213 207 196 213 202 214 216 224 220 221 220 231 236 234 234 260 259 253 248 194 204
330 317 284 264 207 200 218 216 223 231 234 239 219 232 225 208 251 210 216 215 212 218 225 207 227 200 217 214 220 204 221 229 243 229 246 226 211 240 245 245 246 242 218 201 204
321 308 265 208 185 191 223 234 227 255 250 238 228 213 230 217 208 212 215 220 221 213 224 224 233 220 200 214 220 227 210 220 231 238 228 234 240 221 219 226 241 210 216 210 203
306 296 74 200 176 206 227 225 233 245 251 253 238 246 234 242 230 221 239 207 212 199 215 228 213 212 211 207 210 208 223 219 234 228 242 239 236 226 236 256 269 263 212 219 204
302 279 70 169 239 230 239 239 262 253 229 246 254 252 242 238 233 224 227 230 200 221 202 212 216 229 216 222 215 222 213 215 221 224 236 246 245 214 225 230 241 247 262 225 213
285 282 272 228 252 245 248 250 257 253 242 239 234 241 241 238 236 247 234 243 249 222 215 207 226 212 230 218 206 229 224 221 227 238 225 227 230 245 205 246 270 249 243 237 230
283 287 212 207 251 281 286 285 266 249 257 255 253 238 226 229 231 245 218 223 229 230 18 275 222 220 222 222 218 210 228 232 229 231 232 240 238 225 219 229 249 254 247 244 222
252 257 11 284 242 309 291 287 286 275 255 249 244 245 223 221 220 217 237 228 222 178 194 229 237 233 231 255 239 233 219 223 233 240 239 236 235 235 240 247 244 254 254 235 216
284 311 344 292 281 280 269 259 265 268 261 260 238 230 234 235 233 230 228 235 242 226 233 224 252 262 247 244 242 237 233 239 230 236 241 241 247 236 232 235 246 246 246 230 220
257 268 261 281 260 274 266 258 276 345 271 256 294 309 284 281 316 301 298 288 281 250 234 231 236 215 245 233 233 240 241 227 229 239 232 234 238 239 247 243 231 237 233 231 222